This demonstration page uses our WeatherBlox Daily Observations layout. Learn more.

Left ArrowRight Arrow

38.80484, -77.04692

Hourly Observations for April 24, 2016

Temp ( °F °C ) Dew Point ( °F °C ) Humidity (%) Winds ( mph kmh ) Pressure ( in mb ) Visibility ( mi km ) Precip ( " mm )
12:52 am 00:52 Clear 55 12.8 31 -0.6 40 40 N 10 17 30.02 1017 10 16 0.00 0.00
1:52 am 01:52 Clear 54 12.2 31 -0.6 42 42 N 10 17 30.03 1017 10 16 0.00 0.00
2:52 am 02:52 Clear 53 11.7 29 -1.7 40 40 N 12 19 30.04 1017 10 16 0.00 0.00
3:52 am 03:52 Clear 50 10 27 -2.8 41 41 N 10 17 30.06 1018 10 16 0.00 0.00
4:52 am 04:52 Clear 49 9.4 26 -3.3 41 41 N 15 24 30.07 1018 10 16 0.00 0.00
5:52 am 05:52 Mostly Clear 47 8.3 29 -1.7 50 50 NNW 9 15 30.10 1019 10 16 0.00 0.00
6:52 am 06:52 Mostly Sunny 47 8.3 28 -2.2 48 48 NNW 8 13 30.12 1020 10 16 0.00 0.00
7:52 am 07:52 Partly Cloudy 50 10 24 -4.4 36 36 N 9 15 30.16 1021 10 16 0.00 0.00
8:52 am 08:52 Partly Cloudy 54 12.2 24 -4.4 31 31 NNE 10 17 30.16 1021 10 16 0.00 0.00
9:52 am 09:52 Mostly Sunny 57 13.9 24 -4.4 28 28 NNE 12 19 30.16 1021 10 16 0.00 0.00
10:52 am 10:52 Mostly Sunny 59 15 22 -5.6 24 24 NNE 5 7 30.16 1021 10 16 0.00 0.00
11:52 am 11:52 Mostly Sunny 59 15 23 -5 25 25 Calm 30.14 1021 10 16 0.00 0.00
12:52 pm 12:52 Mostly Sunny 63 17.2 22 -5.6 21 21 VRB 5 7 30.13 1020 10 16 0.00 0.00
1:52 pm 13:52 Mostly Sunny 64 17.8 22 -5.6 20 20 E 5 7 30.11 1020 10 16 0.00 0.00
2:52 pm 14:52 Partly Cloudy 65 18.3 26 -3.3 23 23 SSE 6 9 30.09 1019 9 14 0.00 0.00
3:52 pm 15:52 Mostly Sunny 66 18.9 28 -2.2 24 24 S 8 13 30.05 1018 10 16 0.00 0.00
4:52 pm 16:52 Mostly Cloudy 67 19.4 30 -1.1 25 25 S 8 13 30.04 1017 10 16 0.00 0.00
5:52 pm 17:52 Mostly Cloudy 67 19.4 30 -1.1 25 25 SSE 9 15 30.04 1017 10 16 0.00 0.00
6:52 pm 18:52 Mostly Cloudy 65 18.3 31 -0.6 28 28 S 7 11 30.03 1017 10 16 0.00 0.00
7:52 pm 19:52 Mostly Cloudy 63 17.2 34 1.1 34 34 SSE 6 9 30.04 1017 10 16 0.00 0.00
8:52 pm 20:52 Mostly Cloudy 61 16.1 36 2.2 39 39 SE 8 13 30.05 1018 10 16 0.00 0.00
9:52 pm 21:52 Mostly Cloudy 56 13.3 37 2.8 49 49 S 7 11 30.06 1018 10 16 0.00 0.00
10:52 pm 22:52 Mostly Cloudy 58 14.4 38 3.3 48 48 S 12 19 30.06 1018 10 16 0.00 0.00
11:52 pm 23:52 Mostly Cloudy 57 13.9 39 3.9 51 51 S 12 19 30.06 1018 10 16 0.00 0.00

Powered by AerisWeather